EZY61JA EGKK-LGSK

Flight info

Callsign EZY61JA
Flight time N/A
Altitude 35000
Route ODVIK Y311 DVR UL9 KONAN UL607 KOK M150 PITES DCT EDISA DCT UTABA DCT IRBIR DCT UMVEG DCT VEKEN/N0437F370 DCT ETOBI DCT MEDUX UM867 KOGAT DCT ERANA UL737 TSL UL617 SKP
Aircraft A320/M-SDE3FGHIRWY/LB1

Departure

Time N/A
Airport London Gatwick Airport (EGKK)

Arrival

Time 2026-04-21 13:12
Airport Skiathos Island National Airport (LGSK)
Time Latitude Longitude Altitude Speed Heading
2026-04-21 12:07 43.49934 18.79400 34989 ft 483 kts 132°
2026-04-21 12:08 43.47792 18.82969 34988 ft 483 kts 132°
2026-04-21 12:08 43.43510 18.90091 34997 ft 483 kts 132°
2026-04-21 12:09 43.39263 18.97155 34983 ft 482 kts 132°
2026-04-21 12:09 43.34981 19.04255 34990 ft 482 kts 132°
2026-04-21 12:10 43.30693 19.11342 34987 ft 482 kts 132°
2026-04-21 12:10 43.26397 19.18411 34994 ft 482 kts 133°
2026-04-21 12:11 43.22096 19.25479 34996 ft 482 kts 133°
2026-04-21 12:11 43.17799 19.32536 34996 ft 482 kts 133°
2026-04-21 12:12 43.13487 19.39581 35003 ft 482 kts 133°
2026-04-21 12:12 43.09172 19.46607 35020 ft 482 kts 133°
2026-04-21 12:13 43.04892 19.53587 35009 ft 482 kts 133°
2026-04-21 12:13 43.00582 19.60598 35016 ft 482 kts 133°
2026-04-21 12:14 42.96262 19.67589 35005 ft 481 kts 133°
2026-04-21 12:14 42.91942 19.74563 35004 ft 481 kts 133°
2026-04-21 12:15 42.87620 19.81536 35001 ft 482 kts 133°
2026-04-21 12:15 42.83291 19.88506 34983 ft 482 kts 133°
2026-04-21 12:16 42.78950 19.95471 35003 ft 482 kts 133°
2026-04-21 12:16 42.74603 20.02423 35007 ft 482 kts 133°
2026-04-21 12:17 42.70335 20.09388 35015 ft 483 kts 132°
2026-04-21 12:17 42.66090 20.16471 35015 ft 483 kts 132°
2026-04-21 12:18 42.61841 20.23521 35026 ft 482 kts 132°
2026-04-21 12:18 42.57570 20.30530 35013 ft 481 kts 132°
2026-04-21 12:19 42.53298 20.37515 35028 ft 481 kts 132°
2026-04-21 12:19 42.49030 20.44504 35032 ft 481 kts 132°
2026-04-21 12:20 42.44761 20.51479 35027 ft 481 kts 132°
2026-04-21 12:20 42.40490 20.58431 35030 ft 481 kts 133°
2026-04-21 12:21 42.36227 20.65348 35028 ft 481 kts 133°
2026-04-21 12:21 42.31943 20.72292 35026 ft 480 kts 133°
2026-04-21 12:22 42.27658 20.79206 35000 ft 480 kts 133°
2026-04-21 12:22 42.23376 20.86106 35014 ft 479 kts 133°
2026-04-21 12:23 42.19097 20.92989 35015 ft 478 kts 133°
2026-04-21 12:23 42.14816 20.99844 35016 ft 478 kts 133°
2026-04-21 12:24 42.10455 21.06575 35002 ft 474 kts 140°
2026-04-21 12:24 42.05664 21.12673 35007 ft 474 kts 140°
2026-04-21 12:25 42.00861 21.18766 34989 ft 475 kts 140°
2026-04-21 12:25 41.96057 21.24849 34978 ft 475 kts 140°
2026-04-21 12:26 41.91250 21.30930 34982 ft 475 kts 140°
2026-04-21 12:26 41.86442 21.37003 34979 ft 475 kts 140°
2026-04-21 12:27 41.81625 21.43067 34984 ft 475 kts 140°
2026-04-21 12:27 41.76806 21.49117 34954 ft 475 kts 140°
2026-04-21 12:28 41.71986 21.55156 34969 ft 475 kts 140°
2026-04-21 12:28 41.67172 21.61171 34983 ft 475 kts 140°
2026-04-21 12:29 41.62327 21.67202 34986 ft 475 kts 140°
2026-04-21 12:29 41.57531 21.73179 34977 ft 474 kts 140°
2026-04-21 12:29 41.55028 21.75995 34960 ft 468 kts 151°
2026-04-21 12:30 41.52264 21.78266 34959 ft 466 kts 153°
2026-04-21 12:30 41.46719 21.82740 34938 ft 466 kts 154°
2026-04-21 12:31 41.41173 21.87207 34944 ft 466 kts 154°
2026-04-21 12:31 41.35621 21.91672 34942 ft 466 kts 154°
2026-04-21 12:32 41.30066 21.96120 34945 ft 466 kts 154°
2026-04-21 12:32 41.24508 22.00562 34922 ft 466 kts 154°
2026-04-21 12:33 41.18950 22.04998 34924 ft 466 kts 154°
2026-04-21 12:33 41.13385 22.09425 34921 ft 466 kts 154°
2026-04-21 12:34 41.07829 22.13845 34919 ft 466 kts 154°
2026-04-21 12:34 41.02293 22.18323 34905 ft 466 kts 153°
2026-04-21 12:35 40.96762 22.22818 34915 ft 467 kts 153°
2026-04-21 12:35 40.91205 22.27297 34921 ft 468 kts 154°
2026-04-21 12:36 40.85646 22.31762 34894 ft 466 kts 154°
2026-04-21 12:36 40.82892 22.33974 34515 ft 462 kts 154°
2026-04-21 12:36 40.80158 22.36168 34086 ft 458 kts 154°
2026-04-21 12:36 40.77446 22.38340 33566 ft 454 kts 153°
2026-04-21 12:37 40.74756 22.40493 33057 ft 451 kts 154°
2026-04-21 12:37 40.72086 22.42624 32565 ft 447 kts 154°
2026-04-21 12:37 40.69440 22.44733 32089 ft 444 kts 154°
2026-04-21 12:37 40.66801 22.46835 31627 ft 440 kts 154°
2026-04-21 12:38 40.64193 22.48908 31168 ft 437 kts 154°
2026-04-21 12:38 40.61598 22.50968 30714 ft 433 kts 154°
2026-04-21 12:38 40.59027 22.53007 30262 ft 430 kts 154°
2026-04-21 12:38 40.56472 22.55031 29783 ft 427 kts 154°
2026-04-21 12:39 40.53936 22.57041 29284 ft 424 kts 154°
2026-04-21 12:39 40.51422 22.59034 28767 ft 421 kts 154°
2026-04-21 12:39 40.48928 22.61007 28287 ft 417 kts 154°
2026-04-21 12:39 40.46447 22.62969 27809 ft 414 kts 154°
2026-04-21 12:40 40.43989 22.64915 27342 ft 411 kts 154°
2026-04-21 12:40 40.41553 22.66840 26875 ft 408 kts 154°
2026-04-21 12:40 40.39131 22.68753 26430 ft 404 kts 154°
2026-04-21 12:40 40.36731 22.70648 25990 ft 402 kts 154°
2026-04-21 12:41 40.34346 22.72530 25554 ft 399 kts 154°
2026-04-21 12:41 40.31992 22.74386 24922 ft 393 kts 154°
2026-04-21 12:41 40.29661 22.76222 24177 ft 389 kts 154°
2026-04-21 12:41 40.27351 22.78039 23485 ft 385 kts 154°
2026-04-21 12:42 40.25072 22.79827 22710 ft 380 kts 154°
2026-04-21 12:42 40.22813 22.81596 21974 ft 376 kts 154°
2026-04-21 12:42 40.21336 22.82753 21493 ft 373 kts 154°
2026-04-21 12:42 40.19125 22.84488 20796 ft 368 kts 153°
2026-04-21 12:43 40.16940 22.86199 20112 ft 364 kts 153°
2026-04-21 12:43 40.14080 22.88439 19250 ft 359 kts 153°
2026-04-21 12:43 40.12638 22.89568 18817 ft 356 kts 153°
2026-04-21 12:43 40.10522 22.91221 18195 ft 353 kts 153°
2026-04-21 12:44 40.08424 22.92858 17505 ft 349 kts 153°
2026-04-21 12:44 40.06349 22.94474 16844 ft 345 kts 153°
2026-04-21 12:44 40.04304 22.96065 16216 ft 341 kts 153°
2026-04-21 12:44 40.02284 22.97639 15634 ft 336 kts 153°
2026-04-21 12:45 40.00289 22.99191 15053 ft 332 kts 153°
2026-04-21 12:45 39.98321 23.00720 14486 ft 327 kts 153°
2026-04-21 12:45 39.96373 23.02232 13930 ft 323 kts 153°
2026-04-21 12:45 39.94454 23.03723 13344 ft 319 kts 153°
2026-04-21 12:46 39.92557 23.05194 12726 ft 316 kts 153°
2026-04-21 12:46 39.90703 23.06633 12107 ft 313 kts 153°
2026-04-21 12:46 39.88846 23.08072 11493 ft 310 kts 153°
2026-04-21 12:46 39.87000 23.09502 10879 ft 307 kts 153°
2026-04-21 12:47 39.85162 23.10929 10517 ft 307 kts 152°
2026-04-21 12:47 39.83337 23.12352 10213 ft 304 kts 152°
2026-04-21 12:47 39.81532 23.13761 9868 ft 301 kts 152°
2026-04-21 12:47 39.79730 23.15153 9487 ft 301 kts 152°
2026-04-21 12:48 39.77930 23.16534 9118 ft 300 kts 152°
2026-04-21 12:48 39.76142 23.17904 8759 ft 298 kts 152°
2026-04-21 12:48 39.74370 23.19264 8451 ft 291 kts 152°
2026-04-21 12:48 39.72691 23.20562 8312 ft 271 kts 152°
2026-04-21 12:49 39.71107 23.21795 7951 ft 262 kts 152°
2026-04-21 12:49 39.69555 23.23008 7548 ft 260 kts 152°
2026-04-21 12:49 39.68012 23.24216 7246 ft 258 kts 152°
2026-04-21 12:49 39.66483 23.25414 6930 ft 256 kts 152°
2026-04-21 12:50 39.64962 23.26608 6625 ft 255 kts 152°
2026-04-21 12:50 39.63452 23.27794 6312 ft 253 kts 152°
2026-04-21 12:50 39.61948 23.28976 5974 ft 252 kts 152°
2026-04-21 12:50 39.60454 23.30152 5657 ft 250 kts 152°
2026-04-21 12:51 39.58973 23.31320 5338 ft 249 kts 152°
2026-04-21 12:51 39.57521 23.32471 5093 ft 247 kts 151°
2026-04-21 12:51 39.56068 23.33714 4907 ft 248 kts 149°
2026-04-21 12:51 39.54675 23.34983 4742 ft 248 kts 146°
2026-04-21 12:52 39.53306 23.36331 4561 ft 247 kts 146°
2026-04-21 12:52 39.51947 23.37686 4386 ft 246 kts 146°
2026-04-21 12:52 39.50596 23.39047 4210 ft 246 kts 145°
2026-04-21 12:52 39.49246 23.40400 4037 ft 244 kts 146°
2026-04-21 12:53 39.47901 23.41740 3862 ft 244 kts 146°
2026-04-21 12:53 39.46563 23.43079 3688 ft 243 kts 146°
2026-04-21 12:53 39.45253 23.44402 3527 ft 232 kts 145°
2026-04-21 12:53 39.44023 23.45651 3380 ft 218 kts 145°
2026-04-21 12:54 39.42872 23.46830 3256 ft 206 kts 145°
2026-04-21 12:54 39.41777 23.47987 3131 ft 201 kts 142°
2026-04-21 12:54 39.40758 23.49201 3009 ft 197 kts 141°
2026-04-21 12:54 39.39775 23.50411 2885 ft 194 kts 140°
2026-04-21 12:55 39.38800 23.51617 2747 ft 193 kts 140°
2026-04-21 12:55 39.37828 23.52799 2618 ft 191 kts 143°
2026-04-21 12:55 39.36813 23.53896 2507 ft 189 kts 145°
2026-04-21 12:55 39.35792 23.54957 2411 ft 188 kts 145°
2026-04-21 12:56 39.34748 23.55964 2310 ft 185 kts 156°
2026-04-21 12:56 39.33556 23.56472 2239 ft 179 kts 176°
2026-04-21 12:56 39.32336 23.56404 2144 ft 175 kts 195°
2026-04-21 12:56 39.31186 23.55921 2056 ft 175 kts 200°
2026-04-21 12:57 39.30026 23.55415 1977 ft 176 kts 199°
2026-04-21 12:57 39.28868 23.54915 1899 ft 176 kts 199°
2026-04-21 12:57 39.27706 23.54415 1825 ft 176 kts 199°
2026-04-21 12:57 39.26550 23.53918 1746 ft 174 kts 199°
2026-04-21 12:58 39.25422 23.53452 1543 ft 169 kts 198°
2026-04-21 12:58 39.24330 23.53021 1314 ft 162 kts 197°
2026-04-21 12:58 39.23314 23.52621 1108 ft 145 kts 197°
2026-04-21 12:58 39.22375 23.52251 920 ft 138 kts 197°
2026-04-21 12:59 39.21466 23.51893 731 ft 136 kts 197°
2026-04-21 12:59 39.20564 23.51536 540 ft 135 kts 195°
2026-04-21 12:59 39.19664 23.51187 379 ft 136 kts 196°
2026-04-21 12:59 39.18765 23.50834 167 ft 135 kts 198°
2026-04-21 13:00 39.17914 23.50457 108 ft 120 kts 197°
2026-04-21 13:00 39.17034 23.50081 627 ft 142 kts 197°
2026-04-21 13:00 39.16073 23.49674 1415 ft 150 kts 198°
2026-04-21 13:00 39.15015 23.49239 1793 ft 171 kts 198°
2026-04-21 13:01 39.13805 23.48760 2117 ft 194 kts 199°
2026-04-21 13:01 39.12464 23.48168 2633 ft 209 kts 196°
2026-04-21 13:01 39.11003 23.48252 3391 ft 221 kts 158°
2026-04-21 13:01 39.09836 23.49592 3846 ft 235 kts 120°
2026-04-21 13:02 39.09545 23.51639 3951 ft 239 kts 79°
2026-04-21 13:02 39.10321 23.53483 3979 ft 238 kts 40°
2026-04-21 13:02 39.12985 23.56072 3981 ft 242 kts 33°
2026-04-21 13:03 39.14339 23.57356 3980 ft 241 kts 34°
2026-04-21 13:03 39.15692 23.58636 3981 ft 242 kts 34°
2026-04-21 13:03 39.17039 23.59928 3979 ft 242 kts 38°
2026-04-21 13:03 39.17990 23.61684 3981 ft 243 kts 75°
2026-04-21 13:04 39.18147 23.63827 3981 ft 241 kts 90°
2026-04-21 13:04 39.18217 23.65988 3981 ft 242 kts 88°
2026-04-21 13:04 39.18320 23.68130 3982 ft 243 kts 88°
2026-04-21 13:04 39.18436 23.70332 3983 ft 243 kts 87°
2026-04-21 13:05 39.18542 23.72500 3981 ft 243 kts 91°
2026-04-21 13:05 39.18187 23.74582 3980 ft 237 kts 122°
2026-04-21 13:05 39.17090 23.76064 3983 ft 226 kts 157°
2026-04-21 13:05 39.15630 23.76396 3985 ft 215 kts 195°
2026-04-21 13:06 39.14343 23.75485 3986 ft 210 kts 229°
2026-04-21 13:06 39.13638 23.73870 3981 ft 209 kts 258°
2026-04-21 13:06 39.13693 23.72036 3985 ft 211 kts 285°
2026-04-21 13:06 39.14333 23.70313 3982 ft 216 kts 300°
2026-04-21 13:07 39.15212 23.68758 3991 ft 207 kts 305°
2026-04-21 13:07 39.16082 23.67351 3891 ft 197 kts 305°
2026-04-21 13:07 39.16903 23.66051 3748 ft 179 kts 305°
2026-04-21 13:07 39.17697 23.64880 3619 ft 169 kts 309°
2026-04-21 13:08 39.18509 23.63816 3444 ft 164 kts 310°
2026-04-21 13:08 39.19322 23.62778 3225 ft 168 kts 310°
2026-04-21 13:08 39.20172 23.61694 2845 ft 173 kts 310°
2026-04-21 13:08 39.21025 23.60607 2467 ft 170 kts 308°
2026-04-21 13:09 39.21671 23.59407 2141 ft 158 kts 290°
2026-04-21 13:09 39.22040 23.58093 1791 ft 155 kts 282°
2026-04-21 13:09 39.22316 23.56777 1412 ft 152 kts 282°
2026-04-21 13:09 39.22583 23.55483 1090 ft 146 kts 280°
2026-04-21 13:10 39.22767 23.54204 832 ft 144 kts 271°
2026-04-21 13:10 39.22551 23.53005 610 ft 137 kts 231°
2026-04-21 13:10 39.21815 23.52258 622 ft 138 kts 206°
2026-04-21 13:10 39.20929 23.51787 580 ft 139 kts 200°
2026-04-21 13:11 39.20025 23.51390 409 ft 137 kts 200°
2026-04-21 13:11 39.19130 23.50999 227 ft 136 kts 199°
2026-04-21 13:11 39.18238 23.50604 76 ft 132 kts 201°
2026-04-21 13:11 39.17547 23.50292 53 ft 66 kts 199°
2026-04-21 13:12 39.17245 23.50160 32 ft 39 kts 200°
2026-04-21 13:12 39.17081 23.50086 21 ft 19 kts 199°
2026-04-21 13:12 39.17019 23.50061 18 ft 4 kts 92°
2026-04-21 13:12 39.17063 23.50079 20 ft 16 kts 20°
2026-04-21 13:13 39.17179 23.50131 28 ft 15 kts 20°
2026-04-21 13:13 39.17260 23.50169 33 ft 9 kts 20°
2026-04-21 13:13 39.17328 23.50199 39 ft 17 kts 19°
2026-04-21 13:13 39.17459 23.50255 48 ft 19 kts 17°
2026-04-21 13:14 39.17594 23.50315 57 ft 23 kts 20°
2026-04-21 13:14 39.17698 23.50322 58 ft 13 kts 302°
2026-04-21 13:14 39.17756 23.50250 57 ft 11 kts 10°
2026-04-21 13:14 39.17795 23.50266 60 ft 0 kts 22°
2026-04-21 13:15 39.17819 23.50278 55 ft 9 kts 22°
2026-04-21 13:15 39.17866 23.50297 64 ft 6 kts 18°
2026-04-21 13:16 39.17896 23.50282 57 ft 5 kts 300°
2026-04-21 13:16 39.17906 23.50249 64 ft 2 kts 290°
2026-04-21 13:16 39.17910 23.50236 59 ft 1 kts 290°
2026-04-21 13:16 39.17911 23.50231 61 ft 0 kts 290°